Date,TemperatureHighF,TemperatureAvgF,TemperatureLowF,DewpointHighF,DewpointAvgF,DewpointLowF,HumidityHigh,HumidityAvg,HumidityLow,PressureMaxIn,PressureMinIn,WindSpeedMaxMPH,WindSpeedAvgMPH,GustSpeedMaxMPH,PrecipitationSumIn
2013-2-1,55,44,27,30,19,-2,60,39,11,30.38,30.04,22,4,34,0.00
2013-2-2,49,36,22,40,22,11,81,59,47,30.42,30.05,7,0,14,0.00
2013-2-3,56,45,36,39,32,24,84,63,30,30.04,29.86,17,1,26,0.00
2013-2-4,50,40,28,34,28,23,85,65,35,30.16,29.99,6,0,8,0.00
2013-2-5,68,52,37,45,38,31,87,63,26,30.06,29.90,17,1,20,0.00
2013-2-6,68,53,44,49,42,36,88,69,31,30.24,29.99,8,1,12,0.00
2013-2-7,60,51,41,52,46,37,92,83,66,30.26,29.78,18,4,28,1.62
2013-2-8,61,54,47,53,46,37,89,75,56,30.01,29.55,16,4,23,0.64
2013-2-9,56,45,34,37,28,20,78,54,24,30.37,30.01,18,2,22,0.00
2013-2-10,55,44,31,49,36,23,85,74,56,30.48,30.25,10,1,14,0.00
2013-2-11,66,61,54,60,56,49,87,84,77,30.31,29.96,17,2,26,0.13
2013-2-12,66,58,52,57,49,38,88,75,36,30.09,29.93,10,1,17,0.32
2013-2-13,61,53,48,57,49,44,90,85,72,29.99,29.65,23,2,23,0.65
2013-2-14,53,47,40,46,38,34,84,71,53,30.09,29.81,8,1,13,0.00
2013-2-15,60,46,34,41,35,31,93,70,36,30.10,29.96,11,0,12,0.00
2013-2-16,52,41,35,41,35,31,88,80,63,29.96,29.72,12,2,23,0.25
2013-2-17,42,35,30,31,18,8,86,54,25,30.29,29.89,20,3,28,0.02
2013-2-18,51,36,24,26,21,14,81,57,30,30.45,30.29,8,0,11,0.00
2013-2-19,62,42,33,54,38,26,89,83,68,30.30,30.05,6,0,17,0.00
2013-2-20,51,46,38,32,30,25,71,55,37,30.12,30.04,2,0,6,0.00
2013-2-21,61,44,31,36,28,20,81,58,22,30.24,30.09,11,1,13,0.00
2013-2-22,51,46,41,48,37,25,88,71,54,30.32,30.05,12,2,19,0.27
2013-2-23,53,47,44,50,44,41,89,89,87,30.05,29.82,7,1,11,0.59
2013-2-24,66,54,47,50,45,43,90,76,44,29.97,29.76,11,1,16,0.02
2013-2-25,46,43,38,40,34,30,85,70,54,30.18,29.99,18,6,18,0.00
2013-2-26,66,56,43,62,52,34,90,85,69,30.07,29.60,16,3,19,1.34
2013-2-27,63,54,48,56,43,38,83,68,44,29.83,29.64,22,2,25,0.00
2013-2-28,60,49,38,43,36,31,83,63,38,29.85,29.70,16,2,25,0.00